[[{"header":{"parameterUnit":"m.s-1","parameterCategory":1,"la1":30.2991,"la2":30.254,"lo1":-89.0895,"lo2":-89.0444,"dy":0.0017,"dx":0.0017,"nx":28,"ny":28,"refTime":"2025-09-08T21:00:00:Z","depth":0,"parameterNumber":2,"parameterNumberName":"U-component_of_WINDS"},"data":[0,0,0,0,0,0,0,0,0,0,0,0,0,0,0,0,0,0,0,0,0,0,0,0,0,0,0,0,0,0,0,0,0,0,0,0,0,0,0,0,0,0,0,0,0,0,0,0,0,0,0,0,0,0,0,0,0,0,-2.8841,-2.8841,0,-2.8833,-2.8833,-2.8833,-2.872,-2.8717,-2.8714,-2.8711,-2.8706,-2.8709,-2.8711,0,0,0,0,0,0,0,0,0,0,0,0,0,-2.8759,-2.8761,-2.8841,-2.8841,-2.884,-2.8833,-2.8833,-2.8833,-2.872,-2.8717,-2.8713,-2.871,-2.8706,-2.8709,-2.8712,0,0,0,0,0,0,0,0,0,0,0,0,0,-2.8778,-2.8762,-2.8841,-2.8783,-2.8778,-2.8833,-2.8833,-2.8832,-2.8721,-2.8717,-2.8713,-2.8709,-2.8705,-2.8708,-2.8712,-2.8822,0,0,-2.8724,-2.8725,0,0,0,0,0,0,0,0,-2.8777,-2.8781,-2.8792,-2.8788,-2.8782,-2.8773,-2.8802,-2.8829,-2.8722,-2.8743,-2.8711,-2.8706,-2.8732,-2.8733,-2.8742,-2.8821,-2.8821,-2.8724,-2.8726,-2.8728,-2.8729,0,0,0,0,0,0,0,-2.8776,-2.878,-2.8838,-2.8792,-2.8786,-2.8758,-2.8756,-2.8807,-2.8762,-2.8741,-2.8733,-2.8733,-2.8729,-2.8738,-2.8741,-2.8821,-2.8724,-2.8727,-2.873,-2.8731,-2.8987,-2.8992,0,0,0,0,0,0,-2.8782,-2.878,-2.8838,-2.8837,-2.8768,-2.8763,-2.8761,-2.878,-2.8761,-2.8754,-2.8737,-2.8728,-2.8734,-2.8736,-2.874,-2.8865,-2.8728,-2.8732,-2.8734,-2.8983,-2.8988,-2.8993,0,0,0,0,0,0,-2.8781,-2.8788,-2.8838,-2.8806,-2.8811,-2.8769,-2.8792,-2.8782,-2.8791,-2.8758,-2.875,-2.8755,-2.873,-2.8735,-2.8801,-2.8863,-2.8733,-2.8737,-2.8978,-2.8985,-2.8991,-2.9117,0,0,0,0,0,0,-2.8779,-2.8788,-2.883,-2.8808,-2.8813,-2.89,-2.8796,-2.8785,-2.8798,-2.8786,-2.8772,-2.8766,-2.8727,-2.8796,-2.8805,-2.8866,-2.874,-2.8972,-2.8981,-2.8989,-2.9107,-2.9128,-2.9145,0,0,0,0,0,-2.8776,-2.8867,-2.8832,-2.884,-2.8863,-2.8904,-2.8906,-2.8859,-2.8804,-2.8844,-2.8822,-2.8766,-2.8855,-2.8804,-2.8813,-2.8876,-2.8968,-2.8978,-2.8988,-2.9099,-2.9124,-2.9144,0,0,0,0,0,0,-2.8899,-2.8863,-2.8825,-2.8911,-2.8911,-2.8885,-2.8935,-2.8887,-2.8904,-2.8892,-2.8834,-2.8832,-2.8907,-2.8898,-2.8842,-2.898,-2.8901,-2.8914,-2.8983,-2.9006,-2.9024,-2.9025,-2.8743,0,0,0,0,0,-2.8936,-2.8971,-2.8938,-2.9017,-2.9019,-2.8977,-2.8993,-2.8956,-2.8954,-2.8954,-2.8937,-2.8938,-2.8965,-2.8985,-2.9009,-2.9105,-2.91,-2.9153,-2.9172,-2.9187,-2.9199,-2.9247,-2.927,-2.9027,-2.9027,-2.9026,0,0,-2.9013,-2.8998,-2.9024,-2.9042,-2.9037,-2.9074,-2.8978,-2.9023,-2.905,-2.8961,-2.9022,-2.901,-2.9007,-2.9088,-2.9123,-2.9083,-2.9264,-2.92,-2.9213,-2.9216,-2.926,-2.9283,-2.9303,-2.9034,-2.9032,-2.9031,0,0,-2.9172,-2.9165,-2.9229,-2.9225,-2.9219,-2.919,-2.9206,-2.9186,-2.9173,-2.9233,-2.9167,-2.9199,-2.9248,-2.9248,-2.9254,-2.941,-2.9359,-2.942,-2.9517,-2.9565,-2.9584,-2.9601,-2.9655,-2.9675,-2.9431,-2.9431,-2.9432,0,-2.9269,-2.9322,-2.9268,-2.9315,-2.9325,-2.9244,-2.9308,-2.9308,-2.9311,-2.9319,-2.9274,-2.9332,-2.9325,-2.9403,-2.9441,-2.945,-2.9465,-2.9421,-2.9585,-2.9602,-2.9616,-2.9667,-2.9688,-2.9439,-2.9438,-2.9437,-2.9436,0,-2.944,-2.9478,-2.9531,-2.9532,-2.9547,-2.9603,-2.9557,-2.9579,-2.954,-2.9516,-2.9577,-2.9565,-2.9584,-2.96,-2.9564,-2.9673,-2.9648,-2.9596,-2.9516,-2.9648,-2.9694,-2.9714,-2.9449,-2.9447,-2.9444,-2.9443,0,0,-2.9679,-2.9647,-2.9668,-2.9666,-2.9652,-2.968,-2.9732,-2.9748,-2.9767,-2.9771,-2.9812,-2.9854,-2.9804,-2.9812,-2.9774,-2.9816,-2.9938,-2.9757,-2.9756,-2.9791,-3.0056,-3.0096,-3.0119,-2.9904,-2.9907,-2.991,-3.0056,0,-2.9831,-2.9915,-2.9867,-2.9959,-2.9992,-2.9914,-2.9959,-2.9955,-2.9933,-2.9958,-2.9934,-2.9965,-2.9897,-2.99,-2.9939,-2.9916,-2.9991,-2.9904,-2.9941,-2.9943,-2.9944,-3.0144,-3.0186,-3.0324,-3.0074,-3.0077,-3.008,0,-3.002,-3.0029,-3.0124,-3.01,-3.0112,-3.0153,-3.0163,-3.0188,-3.0181,-3.0162,-3.0169,-3.0121,-3.0169,-3.009,-3.0156,-3.0098,-3.011,-3.0101,-3.0105,-3.0107,-3.0019,-3.015,-3.0368,-3.0388,-3.0108,-3.0106,-3.0104,0,-3.0182,-3.0219,-3.0279,-3.028,-3.0255,-3.0285,-3.0276,-3.0265,-3.0277,-3.0286,-3.0293,-3.0309,-3.0317,-3.033,-3.0287,-3.0234,-3.0358,-3.0275,-3.0343,-3.0344,-3.0372,-3.0371,-3.0595,-3.0382,-3.0382,-3.0381,-3.0381,0,-3.0357,-3.0417,-3.0351,-3.0388,-3.0453,-3.0396,-3.0462,-3.0445,-3.0436,-3.0468,-3.0403,-3.0435,-3.0376,-3.0403,-3.037,-3.0428,-3.0433,-3.0418,-3.0409,-3.0424,-3.0426,-3.0431,-3.042,-3.0387,-3.0386,-3.0385,-3.0384,0,-3.0549,-3.0507,-3.0567,-3.0537,-3.0531,-3.058,-3.0554,-3.0587,-3.056,-3.0602,-3.0608,-3.0566,-3.0593,-3.0551,-3.0575,-3.0552,-3.0632,-3.0609,-3.0634,-3.0627,-3.0696,-3.069,-3.093,-3.0958,-3.0729,-3.0731,-3.0733,0,-3.0663,-3.0707,-3.068,-3.0696,-3.069,-3.0718,-3.0728,-3.0674,-3.0688,-3.0682,-3.0716,-3.0737,-3.0751,-3.0798,-3.077,-3.0787,-3.0762,-3.0845,-3.0765,-3.0778,-3.0762,-3.076,-3.0763,-3.0862,-3.0865,-3.0867,-3.0869,0,-3.0869,-3.0845,-3.0862,-3.0872,-3.0886,-3.0892,-3.0894,-3.0911,-3.0853,-3.0872,-3.0898,-3.0908,-3.093,-3.0952,-3.0961,-3.0952,-3.0902,-3.0894,-3.0911,-3.0926,-3.0939,-3.0931,-3.0678,-3.0889,-3.0887,-3.0886,-3.0885,-3.0884,-3.1024,-3.1059,-3.1044,-3.1065,-3.106,-3.1061,-3.109,-3.1065,-3.1085,-3.1097,-3.1064,-3.1097,-3.1088,-3.1094,-3.1091,-3.1116,-3.108,-3.1104,-3.111,-3.1116,-3.1126,-3.0935,-3.1118,-3.1117,-3.1117,-3.1116,-3.1116,0,-3.1225,-3.1211,-3.1231,-3.1233,-3.1249,-3.1197,-3.1195,-3.1213,-3.1242,-3.1237,-3.1251,-3.1279,-3.1299,-3.1272,-3.1287,-3.1313,-3.129,-3.1318,-3.1316,-3.1314,-3.1159,-3.1143,-3.1337,-3.1337,-3.1337,-3.1337,-3.1337,-3.1337,-3.1332,-3.1386,-3.136,-3.1411,-3.1397,-3.1427,-3.143,-3.1431,-3.1426,-3.146,-3.1476,-3.1457,-3.1442,-3.1455,-3.1471,-3.1463,-3.1471,-3.1508,-3.1492,-3.1347,-3.1325,-3.1305,-3.1289,-3.1511,-3.1511,-3.1644,-3.1646,-3.1647]},{"header":{"parameterUnit":"m.s-1","parameterCategory":1,"la1":30.2991,"la2":30.254,"lo1":-89.0895,"lo2":-89.0444,"dy":0.0017,"dx":0.0017,"nx":28,"ny":28,"refTime":"2025-09-08T21:00:00:Z","depth":0,"parameterNumber":3,"parameterNumberName":"V-component_of_WINDS"},"data":[0,0,0,0,0,0,0,0,0,0,0,0,0,0,0,0,0,0,0,0,0,0,0,0,0,0,0,0,0,0,0,0,0,0,0,0,0,0,0,0,0,0,0,0,0,0,0,0,0,0,0,0,0,0,0,0,0,0,-1.7233,-1.7234,0,-1.7382,-1.7384,-1.7385,-1.7458,-1.7458,-1.7458,-1.7458,-1.7611,-1.7615,-1.7619,0,0,0,0,0,0,0,0,0,0,0,0,0,-1.7009,-1.7012,-1.7232,-1.7234,-1.7236,-1.7382,-1.7384,-1.7386,-1.7458,-1.7458,-1.7458,-1.7458,-1.761,-1.7615,-1.7619,0,0,0,0,0,0,0,0,0,0,0,0,0,-1.7127,-1.7014,-1.7232,-1.729,-1.7297,-1.7381,-1.7384,-1.7386,-1.7458,-1.7458,-1.7458,-1.7458,-1.7608,-1.7614,-1.762,-1.7658,0,0,-1.7639,-1.7642,0,0,0,0,0,0,0,0,-1.712,-1.7135,-1.728,-1.7286,-1.7294,-1.7402,-1.7361,-1.7477,-1.7458,-1.7397,-1.7458,-1.7458,-1.7541,-1.7553,-1.7581,-1.7666,-1.7672,-1.7639,-1.7643,-1.7646,-1.7647,0,0,0,0,0,0,0,-1.7112,-1.7129,-1.7292,-1.7282,-1.729,-1.7308,-1.7325,-1.7383,-1.7467,-1.7402,-1.7408,-1.7425,-1.7545,-1.7575,-1.7585,-1.7674,-1.7639,-1.7645,-1.7648,-1.7651,-1.7797,-1.7797,0,0,0,0,0,0,-1.7094,-1.7121,-1.7287,-1.7296,-1.7205,-1.7312,-1.7331,-1.7367,-1.7467,-1.7482,-1.7425,-1.7428,-1.7565,-1.7578,-1.7591,-1.7642,-1.7646,-1.7651,-1.7655,-1.7796,-1.7797,-1.7797,0,0,0,0,0,0,-1.7089,-1.7108,-1.7281,-1.721,-1.7234,-1.7316,-1.7356,-1.737,-1.74,-1.7484,-1.7499,-1.744,-1.7565,-1.7582,-1.7641,-1.7648,-1.7654,-1.766,-1.7796,-1.7796,-1.7797,-1.7744,0,0,0,0,0,0,-1.7082,-1.7106,-1.7122,-1.721,-1.7237,-1.7329,-1.7356,-1.7373,-1.741,-1.7415,-1.7502,-1.7516,-1.7566,-1.7631,-1.7647,-1.7657,-1.7665,-1.7796,-1.7796,-1.7797,-1.7745,-1.7742,-1.774,0,0,0,0,0,-1.7074,-1.7101,-1.7122,-1.7142,-1.7259,-1.7329,-1.7344,-1.7401,-1.741,-1.7427,-1.748,-1.7514,-1.7644,-1.7637,-1.7655,-1.7667,-1.7796,-1.7796,-1.7797,-1.7747,-1.7743,-1.774,0,0,0,0,0,0,-1.7012,-1.7114,-1.7139,-1.7195,-1.7253,-1.7341,-1.7364,-1.7396,-1.7452,-1.7455,-1.7523,-1.7542,-1.7594,-1.7636,-1.7626,-1.7708,-1.7723,-1.7727,-1.7679,-1.7676,-1.7673,-1.7662,-1.767,0,0,0,0,0,-1.7005,-1.7054,-1.714,-1.7181,-1.7209,-1.7281,-1.7314,-1.7352,-1.7415,-1.744,-1.7498,-1.7557,-1.7612,-1.7646,-1.7701,-1.7751,-1.7771,-1.7768,-1.7765,-1.7763,-1.7766,-1.7795,-1.7794,-1.7798,-1.7798,-1.7798,0,0,-1.6991,-1.7052,-1.7079,-1.7171,-1.722,-1.7268,-1.7301,-1.7351,-1.7388,-1.7448,-1.7506,-1.7551,-1.7621,-1.7675,-1.7702,-1.7712,-1.7769,-1.7763,-1.776,-1.7765,-1.7795,-1.7795,-1.7794,-1.7799,-1.7799,-1.7798,0,0,-1.699,-1.7042,-1.7082,-1.713,-1.7204,-1.7251,-1.726,-1.7344,-1.7375,-1.7435,-1.7481,-1.7525,-1.7617,-1.7665,-1.7702,-1.7717,-1.7749,-1.7733,-1.7718,-1.7746,-1.7745,-1.7745,-1.775,-1.7751,-1.7735,-1.7735,-1.7735,0,-1.6963,-1.7039,-1.7098,-1.7145,-1.7184,-1.7239,-1.728,-1.7324,-1.7411,-1.7436,-1.7446,-1.7562,-1.7614,-1.768,-1.7683,-1.7711,-1.7723,-1.7724,-1.7741,-1.7741,-1.7742,-1.7748,-1.7749,-1.7733,-1.7733,-1.7733,-1.7733,0,-1.7002,-1.7053,-1.7076,-1.7159,-1.72,-1.7243,-1.7309,-1.7343,-1.7377,-1.7423,-1.7483,-1.7546,-1.7614,-1.7633,-1.7667,-1.7703,-1.7707,-1.7727,-1.7744,-1.7738,-1.7745,-1.7747,-1.7729,-1.773,-1.7731,-1.7731,0,0,-1.6968,-1.7082,-1.7089,-1.7127,-1.7211,-1.7252,-1.7297,-1.7364,-1.7391,-1.7449,-1.7489,-1.7565,-1.7584,-1.7625,-1.7665,-1.7689,-1.7696,-1.7707,-1.771,-1.7703,-1.7739,-1.7723,-1.7725,-1.7718,-1.7718,-1.7719,-1.7733,0,-1.6979,-1.7063,-1.7117,-1.718,-1.7227,-1.7279,-1.7319,-1.7374,-1.7418,-1.7464,-1.7512,-1.7565,-1.7587,-1.7612,-1.7638,-1.769,-1.7705,-1.769,-1.7755,-1.7757,-1.7736,-1.7728,-1.7712,-1.7723,-1.7736,-1.7737,-1.7737,0,-1.7004,-1.706,-1.7127,-1.7205,-1.7226,-1.7261,-1.7325,-1.7369,-1.7433,-1.7463,-1.7507,-1.7548,-1.7597,-1.7608,-1.7677,-1.7666,-1.7695,-1.7725,-1.7727,-1.7735,-1.7747,-1.7737,-1.7728,-1.7729,-1.7742,-1.7741,-1.7741,0,-1.6972,-1.7064,-1.7116,-1.7146,-1.7239,-1.7261,-1.7301,-1.7365,-1.74,-1.7456,-1.748,-1.7541,-1.7574,-1.762,-1.7676,-1.7679,-1.7739,-1.7755,-1.7765,-1.7763,-1.7776,-1.7774,-1.7771,-1.7794,-1.7794,-1.7794,-1.7794,0,-1.6979,-1.7018,-1.7103,-1.7135,-1.7179,-1.724,-1.7282,-1.7326,-1.7382,-1.7423,-1.7471,-1.7509,-1.7579,-1.7625,-1.7669,-1.7718,-1.7733,-1.7759,-1.777,-1.7755,-1.7751,-1.7776,-1.7776,-1.7794,-1.7794,-1.7794,-1.7794,0,-1.6952,-1.701,-1.707,-1.7152,-1.7173,-1.7202,-1.7272,-1.7305,-1.735,-1.7401,-1.7416,-1.7488,-1.7544,-1.7603,-1.768,-1.7709,-1.7757,-1.7773,-1.7735,-1.7742,-1.7748,-1.7747,-1.7761,-1.7766,-1.7784,-1.7784,-1.7784,0,-1.6953,-1.6984,-1.7068,-1.7099,-1.7137,-1.7186,-1.7222,-1.7283,-1.7319,-1.7392,-1.7416,-1.7475,-1.7526,-1.7613,-1.7672,-1.7731,-1.7748,-1.7749,-1.7757,-1.774,-1.7748,-1.7746,-1.7749,-1.7746,-1.7746,-1.7745,-1.7745,0,-1.6948,-1.6975,-1.7026,-1.7086,-1.7128,-1.7179,-1.7231,-1.7253,-1.7324,-1.7361,-1.7419,-1.7458,-1.7536,-1.7594,-1.7659,-1.77,-1.7734,-1.7742,-1.7747,-1.7732,-1.7709,-1.7722,-1.7728,-1.7741,-1.7742,-1.7742,-1.7742,-1.7742,-1.6936,-1.6965,-1.7029,-1.7083,-1.7128,-1.7176,-1.721,-1.7259,-1.7308,-1.7376,-1.7408,-1.7465,-1.7527,-1.7618,-1.7657,-1.7703,-1.7713,-1.7721,-1.7723,-1.7724,-1.772,-1.7701,-1.7715,-1.7715,-1.7715,-1.7715,-1.7715,0,-1.6934,-1.6977,-1.7026,-1.7097,-1.7139,-1.7167,-1.7226,-1.7259,-1.7309,-1.7363,-1.7412,-1.7478,-1.7534,-1.7596,-1.7656,-1.7681,-1.7698,-1.7694,-1.7693,-1.7702,-1.7707,-1.7697,-1.7679,-1.7679,-1.7679,-1.7679,-1.7679,-1.7679,-1.6938,-1.6989,-1.7022,-1.7096,-1.7139,-1.7195,-1.7226,-1.727,-1.7313,-1.7384,-1.7431,-1.7471,-1.7528,-1.7592,-1.7645,-1.7662,-1.7682,-1.7674,-1.7695,-1.7699,-1.7702,-1.7705,-1.7695,-1.7677,-1.7677,-1.7686,-1.7686,-1.7686]}]]